カタログに戻る

SL-16 DEB

運用中LEO
NORAD 22458·DEBRIS·🇷🇺 Russia

打ち上げ Dec 25, 1992 から Baikonur Cosmodrome

Loading…

次のパス (今後24時間)

TLE

最新Source: Space-Track

元期: Sep 13, 2026, 16:40 UTC

1 22458U 92093EX  26256.69447690  .00000153  00000-0  12687-3 0  9996
2 22458  70.8557 356.8476 0070275 112.5708  37.0058 14.02714502721211

AllMySatでSL-16 DEBをリアルタイム追跡

Download on the App Store